Regional Weather Roundup
Issued by NWS

Home | Current Version | Previous Version | Graphics & Text | Print | Product List | Glossary On
Versions: 1 2 3 4 5 6 7 8 9 10 11 12 13 14 15 16 17 18 19 20 21 22 23 24 25 26 27 28 29 30 31 32 33 34 35 36 37 38 39 40 41 42 43 44 45 46 47 48 49 50
000
ASUS44 KMEG 280510
RWRTN
TENNESSEE HOURLY STATE WEATHER ROUNDUP
NATIONAL WEATHER SERVICE MEMPHIS TN
1100 PM CST SAT DEC 27 2014

TNZ002-004-019-021-049-052-054-088>092-280600-
WEST TENNESSEE

CITY           SKY/WX    TMP DP  RH WIND       PRES   REMARKS
MEMPHIS INTL   LGT RAIN  49  46  90 N7        30.12F
NWS MEMPHIS      N/A     47 N/A N/A MISG        N/A
JACKSON        CLOUDY    46  45  93 NE6       30.12S
DYERSBURG      CLOUDY    45  34  65 NW5       30.16R
UNION CITY     CLOUDY    43  43 100 NW10      30.12R
PARIS          MOCLDY    43  43 100 NE9       30.10F
HUNTINGDON     CLOUDY    44  43  97 NE5       30.13R
LEXINGTON      CLOUDY    48  48 100 CALM      30.10R
SAVANNAH       CLOUDY    52  52 100 CALM      30.11R
$$

TNZ008-025-027-028-033-062-065-066-280600-
NORTH MIDDLE TENNESSEE

CITY           SKY/WX    TMP DP  RH WIND       PRES   REMARKS
NASHVILLE      CLOUDY    50  48  93 N3        30.10F FOG
CLARKSVILLE    CLOUDY    46  44  93 N13       30.12R
SMYRNA         LGT RAIN  49  48  96 CALM      30.11R FOG
COOKEVILLE     CLOUDY    48  46  93 SE3       30.06F
CROSSVILLE     CLOUDY    51  46  83 S9        30.09F
$$

TNZ061-075-076-078-094-096-097-280600-
SOUTH MIDDLE TENNESSEE

CITY           SKY/WX    TMP DP  RH WIND       PRES   REMARKS
FAYETTEVILLE   CLOUDY    50  48  93 MISG      30.07S
TULLAHOMA      CLOUDY    52  48  87 SW6       30.09S
WINCHESTER     CLOUDY    52  50  93 SE9       30.07F
MCMINNVILLE    CLOUDY    50  50 100 CALM      30.05F
COLUMBIA       CLOUDY   N/A N/A N/A CALM      30.08S
SHELBYVILLE    CLOUDY    54  52  94 SW5       30.09R
$$

TNZ017-018-042-046-047-280600-
NORTHEAST TENNESSEE

CITY           SKY/WX    TMP DP  RH WIND       PRES   REMARKS
TRI CITIES     CLOUDY    46  40  79 CALM      30.11F
ELIZABETHTON   PTCLDY    43  36  75 E3        30.11F
$$

TNZ012-013-036-069-073-074-280600-
CENTRAL EAST TENNESSEE

CITY           SKY/WX    TMP DP  RH WIND       PRES   REMARKS
KNOXVILLE      CLOUDY    49  42  77 CALM      30.13F
OAK RIDGE      LGT RAIN  49  44  83 CALM      30.14F
GATLINBURG     CLOUDY    45  39  81 CALM      30.13F
MORRISTOWN     CLOUDY    46  43  87 CALM      30.13F
$$

TNZ083-085-099-280600-
SOUTHEAST TENNESSEE

CITY           SKY/WX    TMP DP  RH WIND       PRES   REMARKS
CHATTANOOGA    LGT RAIN  52  49  89 S6        30.15F
$$

SKY/WX REPORTED AS FAIR MEANS FEW OR NO CLOUDS BELOW
12 THOUSAND FEET.



USA.gov is the U.S. government's official web portal to all federal, state and local government web resources and services.